TimeEST,TemperatureF,Dew PointF,Humidity,Sea Level PressureIn,VisibilityMPH,Wind Direction,Wind SpeedMPH,Gust SpeedMPH,PrecipitationIn,Events,Conditions,WindDirDegrees,DateUTC
12:36 AM,0.7,-6.3,72,29.98,10.0,West,13.8,19.6,N/A,,Clear,260,2013-01-22 05:36:00
12:55 AM,0.5,-6.3,73,29.98,10.0,West,12.7,20.7,N/A,,Clear,260,2013-01-22 05:55:00
1:15 AM,0.3,-6.3,74,29.97,10.0,West,11.5,20.7,N/A,,Clear,270,2013-01-22 06:15:00
1:35 AM,-0.0,-6.2,75,29.97,10.0,West,11.5,17.3,N/A,,Clear,260,2013-01-22 06:35:00
1:55 AM,-0.0,-6.0,76,29.98,10.0,West,10.4,17.3,N/A,,Scattered Clouds,260,2013-01-22 06:55:00
2:16 AM,0.3,-5.8,75,29.98,10.0,West,13.8,19.6,N/A,,Overcast,260,2013-01-22 07:16:00
2:35 AM,0.5,-5.3,77,29.99,4.0,West,10.4,17.3,N/A,,Haze,270,2013-01-22 07:35:00
2:55 AM,0.5,-5.1,77,29.99,7.0,West,11.5,19.6,N/A,,Scattered Clouds,260,2013-01-22 07:55:00
3:15 AM,0.5,-5.3,77,30.00,10.0,West,9.2,17.3,N/A,,Clear,280,2013-01-22 08:15:00
3:35 AM,0.5,-5.4,76,30.00,10.0,West,9.2,-,N/A,,Scattered Clouds,260,2013-01-22 08:35:00
3:56 AM,0.3,-5.4,77,30.01,10.0,West,8.1,-,N/A,,Overcast,260,2013-01-22 08:56:00
4:15 AM,-0.0,-5.8,77,30.02,10.0,West,6.9,-,N/A,,Overcast,260,2013-01-22 09:15:00
4:35 AM,-0.4,-6.0,77,30.02,10.0,West,9.2,-,N/A,,Overcast,260,2013-01-22 09:35:00
4:55 AM,-0.0,-5.8,77,30.03,10.0,West,8.1,-,N/A,,Mostly Cloudy,260,2013-01-22 09:55:00
5:15 AM,-0.2,-5.8,77,30.03,10.0,West,11.5,-,N/A,,Mostly Cloudy,260,2013-01-22 10:15:00
5:35 AM,-0.0,-5.8,77,30.03,10.0,WSW,11.5,-,N/A,,Mostly Cloudy,240,2013-01-22 10:35:00
5:55 AM,-0.4,-5.8,78,30.04,10.0,WSW,8.1,-,N/A,,Overcast,240,2013-01-22 10:55:00
6:16 AM,0.5,-6.2,74,30.05,10.0,West,6.9,-,N/A,,Overcast,270,2013-01-22 11:16:00
6:35 AM,-0.4,-6.3,76,30.05,10.0,WSW,10.4,-,N/A,,Mostly Cloudy,250,2013-01-22 11:35:00
6:55 AM,-1.1,-6.9,77,30.06,10.0,WSW,8.1,-,N/A,,Mostly Cloudy,240,2013-01-22 11:55:00
7:15 AM,-1.3,-6.9,77,30.07,10.0,WSW,9.2,-,N/A,,Mostly Cloudy,240,2013-01-22 12:15:00
7:55 AM,-2.4,-7.6,78,30.08,10.0,WSW,6.9,-,N/A,,Mostly Cloudy,240,2013-01-22 12:55:00
8:15 AM,-2.2,-7.6,78,30.08,10.0,WSW,10.4,-,N/A,,Mostly Cloudy,250,2013-01-22 13:15:00
8:36 AM,-2.4,-7.6,78,30.09,10.0,WSW,9.2,-,N/A,,Overcast,240,2013-01-22 13:36:00
8:55 AM,-2.0,-7.2,78,30.10,10.0,WSW,5.8,-,N/A,,Mostly Cloudy,250,2013-01-22 13:55:00
9:15 AM,-0.6,-6.3,77,30.10,7.0,West,6.9,-,N/A,Snow,Light Snow,260,2013-01-22 14:15:00
9:35 AM,0.1,-6.3,74,30.11,3.0,West,8.1,-,N/A,,Haze,260,2013-01-22 14:35:00
9:55 AM,2.7,-6.0,67,30.12,10.0,West,8.1,-,N/A,,Mostly Cloudy,270,2013-01-22 14:55:00
10:15 AM,3.2,-5.1,68,30.13,1.2,WNW,10.4,-,N/A,Snow,Light Snow,300,2013-01-22 15:15:00
10:35 AM,2.3,-4.0,75,30.13,0.5,West,9.2,-,N/A,Snow,Snow,270,2013-01-22 15:35:00
10:55 AM,2.5,-2.6,79,30.14,0.5,WNW,6.9,-,N/A,Snow,Snow,290,2013-01-22 15:55:00
11:16 AM,3.9,-2.0,76,30.14,1.2,West,4.6,-,N/A,Snow,Light Snow,280,2013-01-22 16:16:00
11:35 AM,5.4,-2.9,69,30.14,3.0,West,13.8,18.4,N/A,,Haze,260,2013-01-22 16:35:00
11:55 AM,5.5,-3.1,68,30.14,1.8,NNW,5.8,-,N/A,Snow,Light Snow,330,2013-01-22 16:55:00
12:16 PM,3.7,-2.4,76,30.14,0.8,NW,4.6,-,N/A,Snow,Light Snow,320,2013-01-22 17:16:00
12:35 PM,3.9,-2.6,74,30.15,0.8,NW,8.1,-,N/A,Snow,Light Snow,310,2013-01-22 17:35:00
12:55 PM,3.9,-2.9,73,30.15,1.5,WNW,5.8,-,N/A,Snow,Light Snow,290,2013-01-22 17:55:00
1:15 PM,6.1,-4.7,61,30.14,4.0,WNW,3.5,-,N/A,,Haze,290,2013-01-22 18:15:00
1:35 PM,4.5,-4.2,67,30.14,2.5,NW,4.6,-,N/A,Snow,Light Snow,320,2013-01-22 18:35:00
1:56 PM,5.0,-4.5,65,30.14,4.0,NNW,6.9,-,N/A,,Haze,330,2013-01-22 18:56:00
2:15 PM,5.0,-6.0,61,30.14,7.0,NW,9.2,-,N/A,,Overcast,320,2013-01-22 19:15:00
2:35 PM,4.6,-6.7,59,30.14,10.0,NW,6.9,-,N/A,,Overcast,320,2013-01-22 19:35:00
2:56 PM,4.6,-6.3,61,30.15,10.0,NW,8.1,-,N/A,,Overcast,310,2013-01-22 19:56:00
3:15 PM,4.5,-6.0,62,30.15,10.0,NW,8.1,-,N/A,,Overcast,310,2013-01-22 20:15:00
3:35 PM,4.8,-5.6,62,30.15,10.0,NW,8.1,-,N/A,,Overcast,320,2013-01-22 20:35:00
3:56 PM,5.7,-6.2,58,30.15,10.0,WNW,5.8,-,N/A,,Overcast,300,2013-01-22 20:56:00
4:15 PM,5.5,-8.3,53,30.15,10.0,WNW,9.2,18.4,N/A,,Mostly Cloudy,300,2013-01-22 21:15:00
4:34 PM,5.0,-6.7,59,30.15,10.0,NW,5.8,-,N/A,,Overcast,310,2013-01-22 21:34:00
4:55 PM,4.1,-5.6,64,30.16,10.0,NW,8.1,-,N/A,,Overcast,310,2013-01-22 21:55:00
5:15 PM,3.6,-5.8,65,30.16,10.0,WNW,6.9,-,N/A,,Overcast,300,2013-01-22 22:15:00
5:35 PM,2.8,-5.8,67,30.17,10.0,WNW,6.9,-,N/A,,Overcast,290,2013-01-22 22:35:00
5:55 PM,2.5,-5.8,68,30.18,10.0,West,5.8,-,N/A,,Overcast,270,2013-01-22 22:55:00
6:16 PM,2.1,-5.8,69,30.17,10.0,West,4.6,-,N/A,,Overcast,270,2013-01-22 23:16:00
6:35 PM,0.3,-6.5,73,30.18,10.0,WSW,4.6,-,N/A,,Overcast,240,2013-01-22 23:35:00
6:55 PM,0.3,-6.0,75,30.18,10.0,WSW,4.6,-,N/A,,Overcast,250,2013-01-22 23:55:00
7:16 PM,-0.4,-6.3,76,30.19,10.0,WSW,4.6,-,N/A,,Overcast,250,2013-01-23 00:16:00
7:35 PM,-0.8,-6.2,78,30.19,10.0,SW,3.5,-,N/A,,Overcast,230,2013-01-23 00:35:00
7:55 PM,-0.8,-6.0,79,30.19,10.0,SW,4.6,-,N/A,,Overcast,220,2013-01-23 00:55:00
8:15 PM,-1.7,-6.5,80,30.19,10.0,SW,4.6,-,N/A,,Mostly Cloudy,220,2013-01-23 01:15:00
8:36 PM,-2.2,-6.9,80,30.18,10.0,SW,4.6,-,N/A,,Scattered Clouds,220,2013-01-23 01:36:00
8:55 PM,-2.7,-7.2,81,30.18,10.0,SW,5.8,-,N/A,,Clear,220,2013-01-23 01:55:00
9:15 PM,-2.9,-7.4,81,30.18,10.0,SW,5.8,-,N/A,,Mostly Cloudy,220,2013-01-23 02:15:00
9:36 PM,-0.4,-5.3,80,30.18,10.0,SW,6.9,-,N/A,,Overcast,220,2013-01-23 02:36:00
9:55 PM,-0.0,-5.1,79,30.17,10.0,SW,8.1,-,N/A,,Overcast,220,2013-01-23 02:55:00
10:15 PM,0.5,-4.9,78,30.17,10.0,SW,9.2,-,N/A,,Overcast,220,2013-01-23 03:15:00
10:35 PM,0.5,-4.5,79,30.17,10.0,SW,9.2,-,N/A,,Overcast,220,2013-01-23 03:35:00
10:55 PM,1.2,-4.0,79,30.17,10.0,SW,8.1,-,N/A,,Overcast,220,2013-01-23 03:55:00
11:16 PM,1.0,-4.2,79,30.17,10.0,SW,8.1,-,N/A,,Overcast,230,2013-01-23 04:16:00
11:35 PM,1.0,-4.4,78,30.17,10.0,SW,6.9,-,N/A,,Overcast,220,2013-01-23 04:35:00
11:55 PM,0.1,-4.9,79,30.17,10.0,SSW,8.1,-,N/A,,Scattered Clouds,210,2013-01-23 04:55:00